61P/Shajn-Schaldach (2001)

Japanese version
Home page
Updated on July 20, 2008

---------------------------------------------------------------------

* Profile

* Orbital Elements

Epoch 2001 May  11.0 TT = JDT 2452040.5  
T 2001 May 9.00679 TT                                   Muraoka 
q   2.3301003            (2000.0)            P               Q
n   0.13218912     Peri.  216.62346     +0.91626955     -0.39983907
a   3.8165612      Node   166.88052     +0.38805283     +0.87115912
e   0.3894765      Incl.    6.08445     +0.09932326     +0.28497457
P   7.46
From 134 observations 1971-2000, mean residual 0".84.  Nongravitational
   parameters A1 = +1.34 +/- 0.20, A2 = -0.1361 +/- 0.0044.

* Finding Charts

* Magnitudes Graph

        m1 = 12.0 + 5 log d + 10.0 log r(t + 65)

---------------------------------------------------------------------

The orbital elements are calculated by Kenji Muraoka.
The charts are made with StellaNavigator Ver.2.0 for Windows (AstroArts / ASCII).
The magnitudes graphs are made with Comet for Windows.

---------------------------------------------------------------------

Copyright(C) Seiichi Yoshida (comet@aerith.net). All rights reserved.